Regional Weather Roundup
Issued by NWS Newport/Morehead, NC

Current Version | Previous Version | Graphics & Text | Print | Product List | Glossary Off
Versions: 1 2 3 4 5 6 7 8 9 10 11 12 13 14 15 16 17 18 19 20 21 22 23 24 25 26 27 28 29 30 31 32 33 34 35 36 37 38 39 40 41 42 43 44 45 46 47 48 49 50

268
ASUS42 KMHX 201825
RWRMHX
WEATHER ROUNDUP FOR EASTERN NORTH CAROLINA
NATIONAL WEATHER SERVICE NEWPORT/MOREHEAD CITY NC
100 PM EST TUE FEB 20 2018

NOTE: "FAIR" INDICATES FEW OR NO CLOUDS BELOW 12,000 FEET
WITH NO SIGNIFICANT WEATHER AND/OR OBSTRUCTIONS TO VISIBILITY

NCZ015>017-031-032-045>047-102-103-201900-
NORTH COAST

CITY           SKY/WX    TMP DP  RH WIND       PRES   REMARKS
EDENTON        FAIR      78  67  70 S6        30.43F
ELIZABETH CITY PTSUNNY   73  68  84 S15       30.44F
KITTY HAWK     RAIN     N/A N/A N/A S3        30.45F
MANTEO         CLOUDY    68  63  84 S14       30.46F

$$

NCZ045>047-081-094-103-104-201900-
CENTRAL COAST

CITY           SKY/WX    TMP DP  RH WIND       PRES   REMARKS
FRISCO         CLOUDY    72  66  81 S9        30.48F

$$

NCZ095-097-098-100-101-201900-
SOUTHERN COAST

CITY           SKY/WX    TMP DP  RH WIND       PRES   REMARKS
BEAUFORT       PTSUNNY   75  66  73 S12       30.47F
CEDAR ISLAND   NOT AVBL
JACKSONVILLE   FAIR      78  64  61 S13       30.44F
PINEY ISLAND   NOT AVBL
WILMINGTON     PTSUNNY   76  65  68 S14       30.44F


$$

NCZ011>013-027>030-043-044-078>080-089-090>093-098-201900-
COASTAL PLAIN

CITY           SKY/WX    TMP DP  RH WIND       PRES   REMARKS
AHOSKIE        CLOUDY    67  66  97 CALM      30.43F
CLINTON        FAIR      79  63  58 S6        30.43F
ELIZABETHTOWN  NOT AVBL
GOLDSBORO      FAIR      76  64  65 SW10      30.41F
GREENVILLE     FAIR      79  64  61 SW14      30.42F
HAVELOCK       MOSUNNY   78  68  71 SW16G22   30.46F
KENANSVILLE    NOT AVBL
KINSTON        NOT AVBL
NEW BERN       PTSUNNY   75  65  70 S9        30.46F
RICHLANDS      PTSUNNY   78  63  59 S16       30.44F
ROCKY MOUNT    PTSUNNY   71  65  81 W3        30.43F
WASHINGTON     FAIR      79  65  62 SW9       30.42F
WHITEVILLE     FAIR      78  61  55 SE13G18   30.42F

$$

AMZ130-135-150-152-154-156-158-170-250-252-270-ANZ085-086-088-633-658-670-201900-
MARINE OBSERVATIONS

STATION/POSITION TIME  TEMP    WIND        PRES    WAVE   SWELL
                       AIR SEA DIR/SP/G            HT/PER HT/PER
                 (UTC) (F)     (DEG/KT/KT) (MB)    (FT/S) (FT/S)
CHESAPEAKE LIGHT NOT AVBL
64 E VA BEACH    1750   54 51  190/  6/  6 1032.1    4/11   3/11
DUCK             1800   67 45  180/  8/ 11 1030.6
2 E DUCK         1800      47                N/A     3/11   2/11
OREGON INLET     1800   64 53  170/  8/ 11 1031.7
13E OREGON INLT  1748      47                N/A     4/12   5/12
HATTERAS CG      1800   70 57  170/  7/ 10 1032.0
DIAMOND BUOY     1810   73 72  170/ 12/ 14 1032.3
CAPE LOOKOUT     1800          180/  9/ 11 1032.0
BEAUFORT LAB     1800   68 54  180/  6/  7 1031.8
30 SE NEW RVR IN 1708   72 69  180/  6/  8 1032.1
30 SE NEW RVR IN 1800      70                N/A     4/ 6   2/13
27 SE WRIGHTSVLE 1708   71 69  160/  6/  8 1032.0
5 SE WRIGHTSVLE  1808   63 55  160/  4/  6 1031.2
225 S CAPE HAT   1750   72 75  100/ 12/ 14 1032.1    4/ 6   3/ 6
41 SE CHARLESTON 1810   72 69  150/  6/  8 1030.0

$$




USA.gov is the U.S. government's official web portal to all federal, state and local government web resources and services.